This is the latest recevied weather packets stored in our database for station/object JF2ZGN-13. If no packets are shown the sender has not sent any weather packets the latest 10 day(s).
| Time | Temp. | Humidity | Pressure | Rain* | Wind** | Luminosity | Snow |
|---|---|---|---|---|---|---|---|
| 1778065689 | 12.22° C | 46% | 911 hPa | 0.76 mm | - | - | - |
| 1778065089 | 12.22° C | 46% | 910.9 hPa | 0.76 mm | - | - | - |
| 1778064488 | 12.22° C | 46% | 910.9 hPa | 0.76 mm | - | - | - |
| 1778063887 | 12.22° C | 45% | 910.7 hPa | 0.76 mm | - | - | - |
| 1778063287 | 12.22° C | 46% | 910.6 hPa | 0.76 mm | - | - | - |
| 1778062686 | 12.22° C | 46% | 910.7 hPa | 0.76 mm | - | - | - |
| 1778062086 | 12.22° C | 45% | 910.8 hPa | 0.76 mm | - | - | - |
| 1778061485 | 12.22° C | 46% | 910.9 hPa | 0.76 mm | - | - | - |
| 1778060885 | 12.22° C | 47% | 910.8 hPa | 0.76 mm | - | - | - |
| 1778060285 | 12.22° C | 44% | 910.7 hPa | 0.76 mm | - | - | - |
| 1778059684 | 12.22° C | 46% | 911 hPa | 0.76 mm | - | - | - |
| 1778059083 | 12.22° C | 46% | 911 hPa | 0.76 mm | - | - | - |
| 1778058484 | 12.22° C | 46% | 910.9 hPa | 0.76 mm | - | - | - |
| 1778057883 | 12.22° C | 46% | 911 hPa | 0.76 mm | - | - | - |
| 1778057283 | 12.22° C | 46% | 911.1 hPa | 0.76 mm | - | - | - |
| 1778056682 | 12.22° C | 42% | 911.1 hPa | 0.51 mm | - | - | - |
| 1778056081 | 12.22° C | 42% | 911.2 hPa | 0.51 mm | - | - | - |
| 1778055481 | 12.22° C | 40% | 911.3 hPa | 0.51 mm | - | - | - |
| 1778054880 | 12.22° C | 38% | 911.1 hPa | 0.51 mm | - | - | - |
| 1778054280 | 12.22° C | 39% | 911.2 hPa | 0.51 mm | - | - | - |
| 1778053680 | 12.22° C | 38% | 911.3 hPa | 0.51 mm | - | - | - |
| 1778053079 | 12.22° C | 38% | 911.4 hPa | 0.51 mm | - | - | - |
| 1778052478 | 12.22° C | 35% | 911.3 hPa | 0.25 mm | - | - | - |
| 1778051878 | 12.22° C | 37% | 911.5 hPa | 0.25 mm | - | - | - |
| 1778051278 | 12.22° C | 41% | 911.4 hPa | 0.25 mm | - | - | - |
* Rain since midnight (hover to see other rain measurements)
** Current wind speed in m/s (hover to see current wind gust speed)